Location: Kermapucano
(48.0667°N, 3.3000°W)
Time: 20:53:14
(UTC+00:00)

NOSS 3-4 (A) - Pass Details

Date: 29 November 2020
Orbit: 879 x 1333 km, 63.4° (Epoch: 25 January)

Event Time Altitude Azimuth Distance (km) Brightness Sun altitude
Exits shadow 04:00:39 39° 114° (ESE) 1,330 4.4 -35.9°
Drops below altitude 10° 04:06:12 10° 51° (NE) 2,695 6.4 -35.0°
Sets 04:09:01 0° 45° (NE) 3,707 7.2 -34.5°
